Вернуться в каталог

KOSMOS-2578

АктивенВоенныеSSO
NORAD 61180·PAYLOAD·🇷🇺 Russia
Это название спутника еще не подтверждено официальными источниками.

Запущен Sep 17, 2024 с Plesetsk Cosmodrome

Loading…

Ближайшие Пролёты (ближайшие 24 часа)

TLE

СвежийSource: Space-Track

Эпоха: Sep 14, 2026, 05:06 UTC

1 61180U 24166B   26257.21270046  .00019551  00000-0  13029-3 0  9998
2 61180  96.6629 145.0050 0000847  24.2776 335.8531 15.75412227114750

Отслеживайте KOSMOS-2578 в реальном времени с AllMySat

Download on the App Store